Location: Newark
(44.4156°N, 12.1972°E)
Time: 04:15:25
(UTC+00:00)

STARLINK-1112 - Pass Details

Date: 29 January 2020
Orbit: 548 x 551 km, 53.0° (Epoch: 21 February)

Event Time Altitude Azimuth Distance (km) Brightness Sun altitude
Rises 17:11:45 0° 303° (WNW) 2,734 7.8 -10.3°
Reaches altitude 10° 17:14:05 10° 311° (NW) 1,840 6.8 -10.7°
Maximum altitude 17:18:05 43° 23° (NNE) 788 4.1 -11.4°
Enters shadow 17:21:01 17° 90° (E) 1,452 5.1 -11.9°
